Theta_e
307 307 307 307 308 307 308 308 308 308 304 302 302 302 303 302 301 306 312 309 314 314 315 326 323 331 331 332 331 326 322 323 327 329 331 330 330 330 331 331 331 331 331 330 331
307 307 307 307 308 307 307 308 308 308 308 307 301 301 301 302 306 311 307 308 308 314 316 315 317 326 333 331 334 334 322 323 324 326 328 328 329 330 331 332 332 331 331 332 331
306 306 307 307 307 307 307 307 308 308 308 308 307 302 301 303 312 312 313 313 313 312 314 316 317 319 328 327 329 330 331 325 325 325 327 328 329 330 331 332 332 332 331 331 330
305 306 307 307 307 307 307 307 308 307 308 308 305 305 304 308 310 313 313 313 314 313 314 315 313 314 315 327 325 328 328 329 326 326 326 328 328 330 331 330 330 329 329 330 330
305 305 305 304 303 303 304 304 304 304 304 304 305 308 308 308 308 306 309 313 314 314 314 313 312 313 313 316 325 326 325 326 328 328 327 328 328 329 330 330 329 329 327 327 327
304 304 304 303 301 301 301 301 301 301 302 305 308 308 308 309 305 305 308 310 313 314 313 313 313 313 314 315 316 321 326 326 326 327 328 329 329 328 329 328 328 328 326 326 327
304 303 302 301 300 300 300 300 300 300 304 307 309 309 308 308 303 305 307 307 308 309 313 315 317 318 316 316 317 319 321 322 325 326 325 326 327 327 327 327 328 328 328 327 327
305 304 303 301 301 301 300 300 300 300 302 307 311 310 308 304 306 307 308 308 309 309 309 310 312 312 316 317 319 319 319 322 322 323 325 325 328 327 326 328 328 328 328 328 326
306 305 305 303 305 302 301 301 304 305 305 306 310 310 309 308 309 308 308 308 308 308 309 310 311 311 314 316 318 320 321 321 323 323 324 326 327 328 327 327 328 328 328 328 327
305 303 303 302 302 301 301 307 308 309 310 310 311 312 310 312 311 310 311 309 311 309 308 309 309 311 311 314 320 321 323 322 323 323 325 325 326 326 326 326 327 327 327 327 327
302 302 302 302 300 301 304 308 307 309 312 309 309 314 314 313 313 309 309 309 309 310 307 308 309 312 312 313 316 319 323 323 323 323 324 324 325 325 326 325 325 326 325 326 326
301 302 301 300 303 305 308 309 306 306 306 307 307 307 308 308 309 308 307 307 308 307 311 311 309 311 313 314 315 316 316 317 320 322 322 324 325 325 326 325 325 326 326 325 325
301 301 301 303 306 308 308 307 307 307 306 307 307 308 308 308 308 308 307 307 307 306 307 311 313 312 313 315 316 315 315 316 316 318 319 320 321 322 323 324 325 325 325 325 326
301 301 302 305 308 308 308 307 307 307 306 309 312 312 310 307 308 308 308 308 307 306 306 306 310 315 313 313 315 316 316 316 317 318 319 320 322 322 322 324 325 325 324 323 323
300 302 303 307 307 309 309 307 307 307 313 311 310 309 308 309 311 312 312 311 310 308 307 306 307 309 312 314 314 315 317 317 318 317 318 320 321 321 322 325 324 323 323 323 323
301 302 303 308 308 308 307 308 308 312 312 310 308 307 306 307 308 309 314 313 313 310 310 310 308 307 307 309 314 314 316 317 317 317 318 319 320 321 321 322 324 324 323 323 323
301 303 304 306 308 308 308 307 310 311 308 305 304 307 308 310 309 309 310 314 313 314 315 315 314 309 309 308 309 312 312 316 318 318 319 318 321 321 321 323 324 323 323 323 325
301 306 307 309 309 308 309 310 307 308 308 306 305 307 307 308 309 310 310 309 311 312 313 313 313 314 315 308 308 309 313 315 319 320 319 318 320 321 321 322 323 323 322 331 338
303 308 310 310 309 308 308 309 309 310 308 305 305 306 307 308 310 311 310 311 308 310 312 315 314 314 312 312 310 309 310 314 315 318 318 319 319 319 320 320 324 324 326 338 338
304 307 311 309 308 309 309 311 310 308 308 308 310 308 310 309 309 310 312 311 311 311 311 311 312 310 310 311 312 314 311 315 314 318 320 321 320 321 323 323 322 326 330 338 337
306 311 311 308 309 310 309 310 308 308 308 309 309 308 309 309 308 310 310 310 313 312 310 310 311 311 310 310 312 315 311 311 314 315 319 322 321 322 325 324 324 326 337 337 336
308 312 308 308 310 310 310 309 308 307 309 309 308 309 310 309 310 310 311 312 311 311 310 313 315 318 315 312 312 313 315 312 315 317 318 320 322 327 330 326 325 335 337 335 336
307 311 309 309 311 310 309 308 307 308 309 309 308 309 309 310 311 310 311 311 310 311 312 314 314 316 316 314 313 315 318 314 314 318 317 321 320 321 324 328 328 337 337 336 335
307 312 309 309 308 308 308 308 309 308 308 307 307 308 309 309 309 311 311 310 311 312 313 312 312 314 317 318 318 321 321 321 316 318 319 320 321 320 322 326 335 337 336 336 335
309 308 308 307 307 307 309 310 310 310 308 309 309 308 308 310 309 309 310 310 311 313 313 313 317 315 315 317 317 317 318 317 320 319 320 320 322 322 328 337 337 336 335 335 336
309 308 307 307 306 307 310 312 310 310 309 310 310 310 311 310 310 311 310 309 308 311 313 314 319 317 318 316 316 317 315 316 318 321 321 317 320 324 328 337 337 336 335 336 336
306 306 307 308 307 307 309 310 311 310 309 309 309 311 312 311 310 309 309 308 309 309 309 314 314 316 317 317 317 318 314 314 318 321 322 318 320 329 333 336 334 334 334 335 335
Wind_Speed
16 16 16 17 18 19 19 20 19 20 20 20 20 22 22 24 28 19 12 18 9 16 12 9 9 15 18 8 11 6 3 6 12 11 16 18 12 10 3 4 2 1 1 7 20
18 17 17 18 18 19 20 20 21 20 20 21 22 23 23 26 29 15 32 29 27 21 14 19 11 14 11 9 7 12 8 14 13 14 17 13 10 17 16 8 4 5 3 10 28
17 18 19 19 18 19 19 19 19 19 19 20 20 23 22 23 8 6 5 9 27 24 26 19 20 15 15 12 12 16 21 15 16 18 19 17 16 15 16 14 7 4 10 16 11
20 19 20 21 21 22 22 21 19 19 19 19 19 21 22 10 6 3 13 16 8 30 23 19 6 10 8 19 16 19 21 19 18 20 22 22 19 20 18 13 12 10 13 8 9
22 23 24 25 25 25 25 24 24 23 21 19 19 16 11 6 10 21 25 11 3 16 20 10 11 7 14 8 16 25 20 19 20 21 24 23 24 22 22 19 20 14 15 14 10
21 22 24 26 27 27 28 28 28 27 25 23 18 13 8 15 15 25 24 18 18 15 17 16 7 10 10 11 19 17 17 22 19 23 23 24 24 21 20 13 15 11 12 11 10
23 24 25 26 26 28 29 30 31 30 26 21 15 12 13 21 22 22 26 28 26 19 11 20 25 12 6 13 19 18 19 19 23 21 23 18 28 32 20 15 18 16 19 18 10
23 24 26 27 29 31 33 35 33 30 27 18 13 10 8 26 21 28 23 26 23 24 22 24 21 7 4 8 15 17 13 21 21 21 24 16 41 20 15 20 18 24 24 21 12
24 25 26 29 29 31 35 36 34 24 18 12 5 8 8 17 14 22 22 19 21 23 24 21 17 7 8 6 7 13 20 22 24 22 17 13 30 21 19 19 24 26 25 22 21
26 29 32 34 33 33 31 31 22 12 8 7 11 7 10 6 6 11 14 21 11 9 12 13 7 10 10 11 18 11 21 24 29 13 17 23 29 31 30 23 23 23 17 12 13
29 31 36 35 32 25 27 18 9 3 2 13 18 16 25 24 28 15 6 8 4 5 9 8 8 21 37 21 15 12 22 22 16 19 18 23 22 27 22 11 14 17 11 14 10
32 34 37 32 28 19 13 4 13 14 15 21 22 27 33 32 25 21 28 18 9 8 8 9 23 27 15 16 18 21 22 23 14 13 14 21 18 24 22 18 21 22 19 11 9
32 35 32 25 22 13 17 20 26 25 6 19 16 16 19 22 22 22 22 18 16 14 13 16 15 16 21 20 21 25 25 19 21 12 22 15 16 20 20 11 10 10 9 10 11
30 33 25 24 5 22 14 26 24 21 4 10 21 10 15 11 20 26 31 20 16 18 15 15 18 21 21 26 20 23 17 23 21 13 18 7 18 25 16 17 16 16 13 12 10
31 29 21 17 13 9 21 25 19 6 4 14 8 5 13 10 12 13 21 7 16 15 12 24 14 10 20 22 18 25 14 19 14 17 16 17 10 26 11 12 6 10 11 11 11
33 25 20 9 12 14 23 20 11 2 4 9 5 11 13 8 7 7 6 17 7 13 13 16 16 18 20 17 20 17 17 19 14 12 11 20 15 30 16 14 9 10 10 10 11
36 21 16 13 5 15 16 7 2 1 15 9 19 17 17 20 17 15 13 17 8 7 12 13 18 16 20 17 19 15 11 7 9 10 17 14 13 22 6 14 18 14 12 11 9
38 15 13 12 13 12 15 2 3 7 17 22 18 11 9 17 13 15 14 13 14 11 6 9 10 9 10 18 11 13 14 10 13 13 16 12 10 10 17 17 22 18 11 5 13
34 15 8 2 1 6 3 2 5 10 13 18 20 11 10 16 4 9 13 8 10 5 2 3 7 12 16 18 15 20 17 18 17 11 7 7 14 22 27 22 15 7 6 14 14
25 9 11 3 5 5 2 4 8 15 22 14 15 13 9 16 9 10 4 8 10 2 6 4 9 10 17 14 14 10 12 6 11 14 14 6 10 11 10 19 18 10 10 14 14
5 3 9 4 5 2 0 4 20 17 22 0 7 14 10 11 9 13 7 10 11 13 14 8 4 14 10 4 9 10 14 11 6 10 12 5 9 15 16 14 14 10 18 18 16
8 3 8 7 0 2 2 15 18 20 18 12 11 11 3 13 11 8 12 2 3 4 11 4 3 7 12 16 16 14 20 16 9 13 10 4 9 2 4 9 12 19 18 16 18
6 4 7 2 2 2 8 13 15 19 13 12 10 13 12 9 4 10 8 8 11 6 3 3 3 5 6 7 9 8 12 13 6 6 20 10 13 6 10 6 11 18 18 17 18
4 4 3 2 4 8 10 9 15 11 14 13 14 12 8 7 7 7 4 7 11 11 10 3 3 7 7 14 10 11 20 16 12 10 7 18 19 10 18 7 17 18 19 19 17
3 3 5 4 9 15 11 9 14 17 10 12 5 10 14 12 16 13 11 7 10 8 3 3 5 8 15 20 11 13 19 19 17 14 12 11 11 12 9 15 19 18 18 18 18
4 3 4 10 11 15 4 3 11 15 15 10 12 14 12 13 17 14 15 13 8 4 5 5 4 7 14 18 10 14 20 20 19 21 15 20 15 10 10 14 14 18 19 19 19
10 7 4 5 10 10 11 12 9 17 4 15 18 11 12 17 16 16 14 14 14 14 7 7 5 4 5 5 7 5 17 21 15 17 18 19 9 6 9 8 9 15 16 18 18
Wind_Direction
1 356 353 350 347 342 340 337 333 334 332 331 330 329 329 325 314 308 237 239 242 250 262 258 219 227 233 215 230 223 229 254 252 253 264 299 313 336 289 332 338 103 16 314 313
357 353 350 347 345 341 336 332 331 328 326 326 328 324 326 330 318 256 272 264 252 239 263 232 250 220 227 213 210 222 225 228 243 259 274 289 313 296 307 307 328 299 319 325 303
352 349 346 343 340 335 331 327 324 320 319 321 321 319 320 333 285 246 3 305 245 229 237 234 239 251 230 228 220 230 239 242 254 259 273 283 293 296 296 295 269 263 175 252 253
355 350 345 340 335 331 329 325 320 318 317 314 314 316 319 330 257 80 16 353 328 220 233 235 255 261 257 229 229 241 236 237 249 256 269 275 283 284 285 276 297 296 299 248 274
351 345 341 339 336 333 330 325 322 318 313 311 310 314 331 235 243 258 304 299 359 185 212 218 230 238 252 264 235 235 243 244 246 248 254 264 265 266 269 281 282 278 284 283 262
347 342 339 336 335 332 329 325 320 317 315 311 302 304 284 260 259 259 280 284 249 197 211 219 220 230 280 256 251 265 250 246 243 247 254 257 263 265 259 265 280 278 279 277 266
347 343 340 338 336 333 328 322 316 310 307 303 295 274 259 251 257 267 275 286 291 296 261 226 221 222 168 249 261 266 272 277 255 244 249 263 271 259 273 272 281 285 290 278 262
342 339 337 334 331 331 328 319 311 304 303 296 288 251 252 261 260 266 275 279 273 272 276 284 294 286 240 279 264 264 275 258 258 259 255 254 262 270 269 273 278 283 274 272 252
338 335 334 329 323 325 323 317 312 308 300 292 269 203 261 287 224 255 243 245 265 270 261 258 265 262 290 255 262 231 238 250 255 241 247 237 267 269 265 259 256 257 260 262 254
339 341 338 333 328 328 325 325 337 310 320 247 244 264 260 241 256 240 220 219 226 234 257 222 229 234 237 226 220 216 223 234 246 242 237 238 250 263 263 259 255 259 253 244 238
342 342 338 336 334 335 331 340 6 27 227 290 278 224 285 282 310 297 237 257 251 210 225 250 218 219 222 220 239 260 236 245 247 237 257 254 260 269 265 256 265 272 264 261 227
343 344 341 337 339 335 323 262 359 305 294 274 269 268 262 268 280 285 291 284 265 237 224 233 229 231 242 236 235 246 264 261 271 249 251 257 254 255 253 256 250 251 252 248 236
345 344 343 338 338 340 316 343 343 345 306 299 274 256 260 236 252 257 250 247 248 251 244 233 247 228 238 232 237 229 240 254 258 287 284 298 292 278 281 272 257 247 244 233 213
343 343 342 337 360 333 346 342 344 348 308 319 351 356 334 215 252 264 251 228 225 239 244 260 255 241 250 230 234 242 233 239 254 252 257 248 271 265 269 266 261 266 258 249 240
341 346 335 337 293 304 331 339 336 342 312 338 284 254 323 5 330 332 293 228 223 226 217 242 274 257 250 249 227 250 236 251 241 241 258 252 262 267 211 238 270 267 250 244 237
338 342 328 347 304 314 335 331 319 38 311 303 308 326 335 334 329 311 7 319 241 229 254 262 244 252 264 275 240 262 242 251 259 258 260 238 233 266 243 248 243 257 260 251 250
334 331 305 293 266 349 339 341 359 75 302 350 351 360 355 358 334 329 286 234 284 227 233 254 267 248 251 266 269 258 225 245 237 233 239 218 235 239 259 222 239 245 252 261 251
334 318 287 267 292 343 325 14 11 328 334 330 340 13 355 4 333 327 322 316 189 236 299 268 276 272 257 234 263 252 230 217 214 219 251 262 243 238 242 245 242 251 240 125 106
334 337 261 259 234 345 31 351 346 348 284 331 327 335 339 354 339 353 335 322 305 87 319 14 257 282 302 302 231 252 251 230 252 279 245 243 236 264 259 257 252 219 166 128 123
330 291 265 152 321 286 63 256 302 327 343 14 323 330 349 326 333 353 320 283 333 113 177 297 290 274 286 313 301 258 251 241 221 234 255 243 243 253 274 249 228 192 136 130 125
317 257 134 155 228 36 121 269 317 349 316 213 273 329 339 336 331 322 271 329 9 337 348 345 263 272 290 247 272 290 242 243 278 210 235 254 268 254 245 213 193 157 142 135 131
323 297 167 178 45 175 273 316 315 325 352 335 323 333 358 284 312 315 341 239 302 296 306 32 293 290 285 276 268 272 283 239 225 228 238 215 265 249 108 146 135 144 141 136 133
312 269 200 207 288 277 293 329 323 335 325 312 338 318 2 335 343 315 327 235 246 272 275 35 308 302 285 232 226 248 268 247 236 241 223 237 242 304 295 158 136 141 136 133 134
292 317 346 323 355 337 329 313 323 311 322 341 321 317 309 302 287 261 268 305 228 269 286 143 257 250 276 301 312 291 316 325 262 237 229 227 259 282 270 209 131 137 137 140 142
243 333 15 319 327 308 322 286 316 327 339 323 302 323 318 315 303 301 314 278 265 150 103 130 257 252 274 283 279 266 284 299 304 261 230 233 263 224 268 140 138 139 136 140 138
337 342 341 296 305 305 48 293 303 318 329 311 317 332 330 294 292 320 308 304 285 203 160 203 256 268 286 275 194 251 268 281 278 281 267 247 245 289 258 129 131 141 141 142 146
2 337 301 283 308 323 327 346 298 309 300 312 310 342 302 297 307 299 286 274 270 267 251 201 237 323 289 183 163 298 256 263 261 274 276 243 196 228 96 73 139 139 142 147 150